Beaufort, SC

11:35 PM EST on February 26, 2017 (GMT -0500)
Beaufort Marine Corps Air Station

Weather History for KNBC - March, 2014

Change the Weather History Date:

Tuesday, March 18, 2014

  Actual Average Record
Temperature  
Mean Temperature 45 °F -  
Max Temperature 51 °F 68 °F 90 °F (1963)
Min Temperature 39 °F 46 °F 30 °F (1962)
Degree Days  
Heating Degree Days 20    
Moisture  
Dew Point 39 °F    
Average Humidity 86    
Maximum Humidity 93    
Minimum Humidity 71    
Precipitation  
Precipitation 0.06 in - - ()
Sea Level Pressure  
Sea Level Pressure 29.93 in    
Wind  
Wind Speed 13 mph (NNE)    
Max Wind Speed 18 mph    
Max Gust Speed 25 mph    
Visibility 9 miles    
Events Rain    
Averages and records for this station are not official NWS values.
T = Trace of Precipitation, MM = Missing Value Source: NWS Daily Summary

Daily Weather History Graph

Daily Weather History Graph

Search for Another Location

Airport or City:

Trip Planner

Search our weather history database for the weather conditions in past years. The results will help you decide how hot, cold, wet, or windy it might be!

Date:

Astronomy

Mar. 18, 2014 Rise Set
Actual Time 7:29 AM EDT 7:33 PM EDT
Civil Twilight 7:04 AM EDT 7:57 PM EDT
Nautical Twilight 6:36 AM EDT 8:26 PM EDT
Astronomical Twilight 6:07 AM EDT 8:54 PM EDT
Moon 9:39 PM EDT (3/18) 8:25 AM EDT (3/18)
Length of Visible Light 12h 52m
Length of Day
12h 03m
Waning Gibbous, 96% of the Moon is Illuminated
Mar 18
Waning Gibbous
Mar 23
Last Quarter
Mar 30
New
Apr 7
First Quarter
Apr 15
Full

Hourly Weather History & Observations

Time (EDT) Temp. Windchill Dew Point Humidity Pressure Visibility Wind Dir Wind Speed Gust Speed Precip Events Conditions
12:11 AM 45.0 °F 39.3 °F 42.1 °F 90% 29.84 in 10.0 mi NNE 11.5 mph - N/A   Overcast
12:56 AM 43.0 °F 35.7 °F 41.0 °F 93% 29.83 in 10.0 mi NNE 15.0 mph - 0.01 in Rain Light Rain
1:56 AM 42.1 °F 34.2 °F 39.9 °F 92% 29.81 in 10.0 mi NNE 16.1 mph - 0.04 in Rain Light Rain
2:31 AM 42.1 °F 35.2 °F 39.9 °F 92% 29.81 in 10.0 mi NNE 12.7 mph 24.2 mph 0.00 in   Overcast
2:56 AM 42.1 °F 35.7 °F 39.0 °F 89% 29.83 in 10.0 mi NNE 11.5 mph - 0.00 in   Overcast
3:56 AM 42.1 °F 34.9 °F 39.0 °F 89% 29.80 in 5.0 mi NNE 13.8 mph - 0.00 in Rain Light Rain
4:22 AM 41.0 °F 33.5 °F 39.0 °F 93% 29.83 in 8.0 mi NNE 13.8 mph - 0.00 in   Overcast
4:33 AM 41.0 °F 33.1 °F 39.0 °F 93% 29.83 in 10.0 mi NNE 15.0 mph - 0.00 in   Overcast
4:46 AM 41.0 °F 33.9 °F 39.0 °F 93% 29.81 in 10.0 mi NNE 12.7 mph - 0.00 in Rain Light Rain
4:56 AM 41.0 °F 32.5 °F 37.9 °F 89% 29.83 in 10.0 mi NNE 17.3 mph 21.9 mph 0.00 in Rain Light Rain
5:52 AM 39.2 °F 30.5 °F 37.4 °F 93% 29.77 in 10.0 mi NNE 16.1 mph - 0.01 in   Overcast
5:56 AM 39.9 °F 30.8 °F 37.9 °F 93% 29.78 in 10.0 mi NNE 18.4 mph - 0.01 in   Overcast
6:13 AM 39.9 °F 32.9 °F 37.9 °F 93% 29.81 in 10.0 mi NNE 11.5 mph 19.6 mph N/A   Overcast
6:56 AM 39.9 °F 31.8 °F 37.9 °F 93% 29.79 in 10.0 mi NNE 15.0 mph - 0.00 in   Overcast
7:10 AM 39.0 °F 29.6 °F 37.0 °F 93% 29.79 in 10.0 mi NNE 18.4 mph - N/A   Overcast
7:22 AM 39.9 °F 31.4 °F 37.0 °F 89% 29.82 in 10.0 mi NNE 16.1 mph 25.3 mph N/A   Overcast
7:34 AM 39.9 °F 32.9 °F 37.0 °F 89% 29.85 in 10.0 mi North 11.5 mph - N/A   Overcast
7:56 AM 39.9 °F 32.5 °F 37.0 °F 89% 29.86 in 10.0 mi NNE 12.7 mph 21.9 mph N/A   Overcast
8:18 AM 39.9 °F 32.5 °F 37.0 °F 89% 29.87 in 10.0 mi NNE 12.7 mph - N/A   Overcast
8:56 AM 39.9 °F 33.9 °F 37.0 °F 89% 29.94 in 10.0 mi NNE 9.2 mph - 0.00 in   Overcast
9:56 AM 39.9 °F 33.4 °F 37.0 °F 89% 29.95 in 10.0 mi North 10.4 mph - N/A   Overcast
10:25 AM 39.9 °F 33.4 °F 37.9 °F 93% 29.98 in 10.0 mi North 10.4 mph - N/A   Overcast
10:56 AM 41.0 °F 34.3 °F 37.9 °F 89% 29.99 in 10.0 mi North 11.5 mph - N/A   Overcast
11:54 AM 42.8 °F 36.6 °F 37.4 °F 81% 30.01 in 10.0 mi NNW 11.5 mph - N/A   Overcast
11:56 AM 42.1 °F 36.1 °F 37.9 °F 85% 30.01 in 10.0 mi NNW 10.4 mph - N/A   Overcast
12:56 PM 44.1 °F 37.7 °F 39.0 °F 82% 30.01 in 10.0 mi North 12.7 mph - N/A   Overcast
1:09 PM 45.0 °F 38.9 °F 39.0 °F 80% 30.01 in 10.0 mi NNW 12.7 mph - N/A   Overcast
1:56 PM 46.9 °F - 39.9 °F 77% 29.99 in 10.0 mi North 10.4 mph - N/A   Overcast
2:56 PM 51.1 °F - 42.1 °F 71% 29.99 in 10.0 mi North 8.1 mph - N/A   Overcast
3:56 PM 50.0 °F - 42.1 °F 74% 30.00 in 10.0 mi North 13.8 mph - N/A   Overcast
4:03 PM 50.0 °F - 42.1 °F 74% 30.00 in 10.0 mi North 11.5 mph - N/A   Overcast
4:56 PM 48.9 °F - 41.0 °F 74% 30.00 in 10.0 mi North 13.8 mph - N/A   Overcast
5:56 PM 48.0 °F - 41.0 °F 77% 30.02 in 6.0 mi NNE 12.7 mph - N/A   Haze
6:56 PM 46.0 °F 40.6 °F 39.9 °F 79% 30.04 in 6.0 mi North 11.5 mph - N/A   Haze
7:03 PM 46.0 °F 40.2 °F 39.9 °F 79% 30.04 in 6.0 mi North 12.7 mph - N/A   Haze
7:56 PM 46.0 °F 40.6 °F 39.9 °F 79% 30.07 in 6.0 mi NNE 11.5 mph - N/A   Haze
8:56 PM 46.0 °F 41.4 °F 39.9 °F 79% 30.09 in 6.0 mi NNE 9.2 mph - N/A   Haze
9:56 PM 46.0 °F 41.4 °F 41.0 °F 83% 30.12 in 10.0 mi NNE 9.2 mph - N/A   Overcast
10:56 PM 45.0 °F 38.9 °F 41.0 °F 86% 30.13 in 10.0 mi NNE 12.7 mph - N/A   Overcast
11:05 PM 45.0 °F 39.7 °F 41.0 °F 86% 30.13 in 10.0 mi NE 10.4 mph - N/A   Overcast
11:56 PM 45.0 °F 41.2 °F 41.0 °F 86% 30.14 in 10.0 mi ENE 6.9 mph - N/A   Overcast